Location: La Pernelle
(49.6188°N, 1.2999°W)
Time: 10:34:40
(UTC+00:00)

Meteor 2-20 - Pass Details

Date: 24 October 2021
Orbit: 939 x 958 km, 82.5° (Epoch: 08 December)

Event Time Altitude Azimuth Distance (km) Brightness Sun altitude
Rises 05:54:21 0° 194° (SSW) 3,608 7.4 -8.2°
Reaches altitude 10° 05:56:51 10° 197° (SSW) 2,664 6.7 -7.8°
Maximum altitude 06:02:55 73° 281° (WNW) 991 4.4 -6.8°
Drops below altitude 10° 06:09:02 10° 7° (N) 2,671 6.8 -5.9°
Sets 06:11:33 0° 10° (N) 3,618 7.5 -5.5°
